TimeEDT,TemperatureF,Dew PointF,Humidity,Sea Level PressureIn,VisibilityMPH,Wind Direction,Wind SpeedMPH,Gust SpeedMPH,PrecipitationIn,Events,Conditions,WindDirDegrees,DateUTC
12:54 AM,48.9,37.9,66,30.27,10.0,NW,5.8,-,N/A,,Clear,320,2013-05-02 04:54:00
1:54 AM,46.9,37.0,68,30.27,10.0,NW,4.6,-,N/A,,Clear,320,2013-05-02 05:54:00
2:54 AM,46.9,37.0,68,30.27,10.0,NW,3.5,-,N/A,,Clear,310,2013-05-02 06:54:00
3:54 AM,46.0,37.0,71,30.26,10.0,Calm,Calm,-,N/A,,Clear,0,2013-05-02 07:54:00
4:54 AM,45.0,37.0,74,30.26,10.0,Calm,Calm,-,N/A,,Clear,0,2013-05-02 08:54:00
5:54 AM,42.1,37.0,82,30.27,10.0,Calm,Calm,-,N/A,,Clear,0,2013-05-02 09:54:00
6:54 AM,43.0,37.9,82,30.28,10.0,Calm,Calm,-,N/A,,Clear,0,2013-05-02 10:54:00
7:54 AM,46.0,37.9,73,30.29,10.0,Calm,Calm,-,N/A,,Clear,0,2013-05-02 11:54:00
8:54 AM,51.1,39.9,66,30.30,10.0,SE,3.5,-,N/A,,Clear,130,2013-05-02 12:54:00
9:54 AM,57.0,44.1,62,30.30,10.0,SE,5.8,-,N/A,,Clear,130,2013-05-02 13:54:00
10:54 AM,62.1,45.0,53,30.29,10.0,Calm,Calm,-,N/A,,Clear,0,2013-05-02 14:54:00
11:54 AM,64.9,45.0,48,30.28,10.0,ESE,9.2,-,N/A,,Clear,110,2013-05-02 15:54:00
12:54 PM,66.9,46.0,47,30.27,10.0,East,6.9,-,N/A,,Clear,100,2013-05-02 16:54:00
1:54 PM,64.9,48.0,54,30.26,10.0,ESE,12.7,-,N/A,,Clear,110,2013-05-02 17:54:00
2:54 PM,64.0,45.0,50,30.25,10.0,ESE,12.7,-,N/A,,Clear,110,2013-05-02 18:54:00
3:54 PM,69.1,42.1,38,30.23,10.0,SE,13.8,19.6,N/A,,Partly Cloudy,130,2013-05-02 19:54:00
4:54 PM,68.0,43.0,40,30.21,10.0,ESE,17.3,25.3,N/A,,Clear,120,2013-05-02 20:54:00
5:54 PM,70.0,45.0,41,30.19,10.0,SE,12.7,21.9,N/A,,Clear,130,2013-05-02 21:54:00
6:54 PM,64.9,44.1,47,30.18,10.0,ESE,9.2,-,N/A,,Clear,120,2013-05-02 22:54:00
7:54 PM,59.0,43.0,55,30.18,10.0,ESE,10.4,-,N/A,,Clear,110,2013-05-02 23:54:00
8:54 PM,54.0,42.1,64,30.18,10.0,ESE,8.1,-,N/A,,Clear,110,2013-05-03 00:54:00
9:54 PM,52.0,42.1,69,30.19,10.0,ESE,3.5,-,N/A,,Clear,110,2013-05-03 01:54:00
10:54 PM,51.1,42.1,71,30.19,10.0,SE,3.5,-,N/A,,Clear,130,2013-05-03 02:54:00
11:54 PM,51.1,42.1,71,30.18,10.0,Calm,Calm,-,N/A,,Clear,0,2013-05-03 03:54:00